Lapse_Rate
7.2 6.5 6.5 6.5 6.5 6.5 6.5 6.5 6.5 6.5 6.5 6.5 6.5 6.5 6.5 6.7 7.1 6.9 7.2 7.5 7.6 7.8 8.5 8.8 9.0 9.2 9.2 9.3 9.3 9.3 9.1 9.2 9.3 9.3 9.2 9.2 9.1 9.7 10.1 10.0 9.8 9.5 9.4 8.3
6.5 6.5 6.5 6.5 6.5 6.5 6.5 6.5 6.5 6.5 6.5 6.5 6.5 6.5 6.5 6.5 6.5 7.0 7.2 7.3 7.5 7.9 8.2 8.5 8.8 9.0 9.1 9.2 9.3 9.4 9.4 9.3 9.4 9.5 9.5 9.4 9.4 9.5 9.4 9.9 9.6 9.8 8.6 7.5
6.5 6.5 6.5 6.5 6.5 6.5 6.5 6.5 6.5 6.5 6.5 6.5 6.5 6.5 6.5 6.5 6.8 7.2 7.4 7.7 7.8 7.9 7.9 8.3 8.6 8.8 9.0 9.0 9.1 9.3 9.3 8.6 9.0 9.5 9.6 9.6 9.8 9.3 7.5 9.5 9.5 9.8 9.3 8.3
6.5 6.5 6.5 6.5 6.5 6.5 6.5 6.5 6.5 6.5 6.5 6.5 6.5 6.5 6.5 6.5 6.5 6.5 7.0 7.5 7.7 7.9 8.2 8.4 8.6 8.8 8.9 9.1 9.3 9.4 9.3 8.4 9.2 9.4 9.2 8.8 9.0 9.0 9.5 9.6 9.4 9.5 9.3 7.9
6.5 6.5 6.5 6.5 6.5 6.5 6.5 6.5 6.5 6.5 6.5 6.5 6.5 6.5 6.5 6.5 6.5 6.5 6.5 7.3 7.6 8.0 8.2 8.3 8.6 8.9 9.2 9.2 9.3 9.4 9.3 9.2 9.2 8.8 6.8 6.4 7.4 9.3 9.6 9.1 9.5 8.9 8.7 7.8
6.5 7.0 6.5 6.5 6.5 6.5 6.5 6.5 6.5 6.5 6.5 6.5 6.5 6.5 6.5 6.5 6.5 6.5 6.5 7.3 7.6 7.9 8.2 8.5 8.8 9.0 9.1 9.3 9.3 9.3 9.2 8.9 8.6 5.0 4.4 4.4 5.0 6.5 8.6 9.6 9.5 9.2 8.3 6.6
6.5 6.5 6.5 6.6 6.5 6.5 6.5 6.5 6.5 6.5 6.5 6.5 6.5 6.5 6.5 6.5 6.5 6.5 6.5 7.2 7.6 8.0 8.2 8.4 8.6 8.8 9.0 9.0 9.1 9.0 8.8 8.0 6.1 3.6 3.2 3.8 4.5 4.7 7.0 8.9 9.2 8.6 7.4 6.0
6.5 6.5 6.5 6.5 6.5 6.5 6.5 6.5 6.5 6.5 6.5 6.5 6.5 6.5 6.5 6.5 6.7 7.2 7.4 7.5 7.7 7.9 8.2 8.4 8.7 8.8 8.9 9.0 9.0 8.5 8.3 5.9 4.8 3.2 2.1 2.7 3.0 3.8 6.1 8.5 9.4 9.1 8.5 6.5
6.5 6.5 6.5 6.5 6.5 6.5 6.5 6.5 6.5 6.5 6.5 6.5 6.5 6.5 6.5 6.5 6.5 6.6 6.9 7.2 7.4 7.9 8.2 8.4 8.7 8.9 9.0 9.0 8.8 8.4 8.0 6.7 3.3 2.6 1.1 1.8 1.6 2.8 6.4 8.2 9.3 8.7 8.4 7.4
6.5 6.5 6.5 6.5 6.6 6.5 6.5 6.5 6.5 6.5 6.5 6.5 6.5 6.5 6.5 6.5 6.5 6.5 6.5 6.9 7.5 8.0 8.2 8.5 8.7 8.8 9.0 9.0 8.9 8.5 8.3 6.0 3.4 2.3 1.2 1.3 0.3 1.0 5.3 8.4 8.8 8.7 7.7 8.0
6.5 6.5 6.5 6.5 6.5 6.5 6.5 6.5 6.5 6.5 6.5 6.5 6.5 6.5 6.5 6.5 6.5 6.5 6.5 7.2 7.5 7.9 8.2 8.5 8.7 9.0 9.0 9.1 9.1 8.7 7.9 5.5 2.8 0.6 0.8 0.3 -0.2 0.1 2.0 7.2 7.8 8.7 8.6 8.2
6.5 6.5 6.5 6.5 6.5 6.5 6.5 6.5 6.5 6.5 6.5 6.5 6.5 6.5 6.5 6.5 6.5 6.7 6.9 7.3 7.7 8.1 8.3 8.6 8.8 8.9 8.9 8.9 8.9 8.8 6.9 5.3 4.2 2.2 0.5 0.3 0.2 0.0 -0.0 0.4 3.7 7.7 7.4 7.1
6.5 6.5 6.5 6.5 6.5 6.5 6.5 6.5 6.5 6.5 6.5 6.5 6.5 6.5 6.5 6.5 6.5 7.0 6.9 7.4 7.7 8.0 8.3 8.5 8.7 8.7 8.8 8.9 8.9 8.7 6.4 4.1 4.1 2.4 0.8 -0.6 0.4 0.7 -0.6 -1.0 -0.2 4.8 6.7 5.8
6.7 6.5 6.5 6.5 6.5 6.5 6.5 6.5 6.5 6.5 6.5 6.5 6.5 6.5 6.5 6.5 6.5 6.6 7.2 7.5 7.8 8.0 8.1 8.4 8.6 8.7 8.8 8.9 8.9 8.6 8.1 4.6 3.1 2.4 1.8 -1.4 0.1 1.3 0.1 -0.7 -0.5 -1.8 0.4 5.4
6.5 6.5 6.5 6.5 6.5 6.5 6.5 6.5 6.5 6.5 6.5 6.5 6.5 6.5 6.5 6.5 6.5 6.8 7.4 7.6 7.6 7.7 8.0 8.2 8.4 8.5 8.7 8.7 8.7 8.7 8.4 6.4 3.7 2.5 1.9 1.4 1.8 1.7 0.8 -1.1 -1.4 -2.2 -2.8 -2.3
6.5 6.5 6.5 6.5 6.5 6.5 6.5 6.5 6.5 6.5 6.5 6.5 6.5 6.5 6.5 7.0 7.2 7.0 7.1 7.3 7.3 7.6 7.9 8.2 8.4 8.5 8.4 8.3 8.4 8.5 8.3 7.2 4.9 2.7 2.4 2.8 2.5 1.1 0.2 0.4 -0.5 -3.0 -1.4 -3.6
6.5 6.5 6.5 6.5 6.5 6.5 6.5 6.5 6.5 6.5 6.5 6.5 6.5 6.5 6.5 6.5 6.5 6.9 7.2 7.4 7.5 7.7 7.9 8.0 8.1 8.1 8.2 8.1 8.2 8.3 8.4 7.4 5.1 3.2 2.9 3.0 2.3 1.8 0.8 1.6 0.5 -1.7 -0.5 -2.1
6.5 6.5 6.5 6.5 6.5 6.5 6.5 6.5 6.5 6.5 6.5 6.5 6.5 6.5 6.5 6.7 7.2 7.6 7.7 7.5 7.7 7.8 7.8 7.9 7.9 8.2 7.2 7.2 8.1 8.6 8.7 6.4 4.7 3.8 3.6 3.5 3.1 2.7 2.0 1.7 1.5 1.3 0.9 0.5
6.5 6.5 6.5 6.5 6.5 6.5 6.5 6.5 6.5 6.5 6.5 6.5 6.5 6.5 6.8 7.1 7.4 7.2 7.9 7.9 7.7 7.6 7.2 6.9 7.7 7.5 6.9 6.6 7.6 8.3 7.0 5.9 4.8 4.5 4.4 4.4 4.1 3.9 3.2 2.9 2.3 1.4 0.3 0.1
6.5 6.5 6.5 6.5 6.5 6.5 6.5 6.5 7.1 6.5 6.5 6.5 6.7 6.5 6.6 7.0 6.5 6.5 7.7 7.7 7.1 7.0 7.0 7.3 6.9 6.7 6.9 6.4 6.6 6.5 5.8 5.4 5.1 5.2 4.6 4.7 4.9 4.6 4.7 4.2 3.9 3.1 2.3 2.0
6.5 6.5 6.5 6.5 6.5 6.5 6.5 6.6 7.2 6.5 6.5 6.9 7.1 7.0 6.9 6.5 7.0 7.4 7.3 7.0 6.9 7.1 7.2 7.0 7.4 7.2 6.9 7.3 6.9 6.5 6.3 5.9 5.6 5.6 4.9 4.6 5.1 5.3 5.2 5.3 4.4 4.6 4.2 3.4
6.5 6.5 6.5 6.5 6.5 6.5 7.1 6.7 6.5 6.6 7.2 7.3 7.3 7.3 7.1 7.4 7.6 7.5 6.9 7.1 7.0 7.1 7.4 7.6 7.5 7.6 8.6 8.9 8.7 8.0 7.0 6.7 6.2 5.6 5.2 4.8 4.0 4.8 5.1 4.5 5.1 4.9 4.7 5.0
6.5 6.5 6.5 6.5 6.5 6.7 7.4 7.0 7.5 7.6 7.3 7.3 7.5 7.5 7.6 7.5 7.4 7.2 7.1 6.9 6.9 7.2 7.7 8.6 8.6 8.7 8.9 9.1 9.0 8.6 8.6 9.0 8.5 8.1 7.1 6.5 5.5 4.5 4.6 4.4 3.9 4.1 5.7 5.4
6.5 6.8 6.5 6.5 6.5 6.6 7.1 7.7 7.8 7.9 7.7 7.8 7.9 7.7 7.5 7.2 7.2 7.2 7.1 7.3 7.3 7.4 8.3 8.8 8.9 8.8 8.7 9.1 9.2 9.3 9.3 9.6 9.4 9.0 8.8 8.9 8.6 6.8 5.5 4.9 4.9 4.0 3.6 5.2
6.6 6.6 6.5 6.5 6.6 7.0 7.3 7.6 7.8 7.7 7.9 7.6 7.8 8.0 7.9 7.6 7.6 7.9 7.9 7.7 7.7 7.9 8.3 8.8 8.7 8.8 8.9 9.3 9.2 9.5 9.6 9.6 9.3 9.2 9.2 9.1 9.0 8.8 7.9 5.8 5.8 5.9 5.1 4.5
6.7 6.5 6.5 6.5 7.0 6.9 7.0 7.8 8.0 7.8 7.7 7.9 8.1 8.1 8.3 8.3 7.9 7.9 7.9 8.2 8.3 8.1 8.1 8.2 8.2 8.3 8.5 7.9 6.5 8.7 9.4 9.5 9.3 9.1 9.2 9.0 9.2 9.2 9.2 8.9 7.1 5.4 5.8 5.3
Wind_Speed
17 16 23 25 27 29 27 25 30 25 17 14 16 20 17 16 18 18 14 14 9 7 4 3 4 6 8 9 11 13 14 13 10 9 10 10 11 11 12 13 16 14 14 16
17 20 29 23 22 19 27 28 28 24 23 12 18 22 20 20 19 16 15 11 9 7 4 4 5 7 9 10 11 12 13 14 12 10 10 11 11 12 11 12 13 15 14 13
25 25 12 21 17 18 23 27 24 22 25 22 19 24 21 19 18 16 8 11 9 5 1 4 8 9 10 11 12 12 13 14 14 14 12 12 13 12 13 12 11 12 18 18
19 22 23 11 17 21 20 24 21 25 21 17 22 17 19 23 10 11 13 12 11 6 3 7 9 11 12 11 12 13 14 15 13 14 13 15 14 15 12 14 12 12 17 18
15 15 21 28 28 12 19 18 23 27 22 21 19 10 13 18 18 17 16 12 9 4 5 7 10 11 11 12 13 14 15 15 15 15 14 11 14 15 14 14 16 15 14 14
16 3 9 25 17 15 12 13 18 20 18 16 21 18 13 13 17 19 16 12 6 4 6 8 10 11 12 12 13 14 16 17 15 15 16 16 17 17 16 16 14 12 10 10
13 17 6 9 15 20 18 8 4 5 8 11 15 12 19 5 8 18 17 13 4 5 8 9 11 12 13 15 16 15 17 18 17 16 16 17 16 17 21 22 16 14 11 9
10 7 19 20 19 12 26 19 6 5 5 8 12 6 7 9 17 14 12 8 4 7 8 10 12 13 15 17 17 17 19 18 18 16 17 16 16 11 14 21 16 12 11 12
5 9 14 12 17 20 10 21 24 15 16 10 7 10 10 9 9 10 9 5 7 8 9 11 12 13 14 16 17 17 19 19 18 17 15 16 15 16 18 23 16 12 13 11
5 3 7 11 9 15 16 14 16 7 5 10 11 16 8 14 11 10 9 7 8 10 11 12 13 14 14 15 15 16 18 19 18 17 14 15 17 18 17 15 15 14 12 16
3 4 4 3 9 5 12 9 6 6 8 6 11 2 6 12 11 9 7 8 9 10 10 11 12 13 14 15 16 16 18 19 19 17 16 17 18 19 16 10 13 13 14 16
9 4 6 12 4 4 9 10 4 3 6 7 9 1 7 11 10 3 5 5 7 8 10 11 12 14 15 16 17 17 18 19 18 16 15 17 18 18 16 14 17 9 13 13
8 7 8 8 8 6 7 7 7 5 5 11 9 2 8 6 5 6 4 7 7 9 11 12 13 13 14 15 16 17 17 20 19 16 17 16 18 17 16 15 16 9 9 6
2 5 8 6 2 2 6 9 8 5 5 10 11 9 6 6 11 12 13 8 9 10 10 11 12 13 14 15 16 17 16 16 19 18 17 16 17 17 14 13 13 15 13 5
5 6 6 2 1 1 2 6 7 8 9 6 10 11 9 12 12 10 9 9 9 9 11 12 13 13 14 15 16 17 17 15 16 16 17 17 14 14 14 15 13 14 15 14
2 3 5 8 4 6 8 9 11 11 11 13 13 11 14 13 12 9 7 7 7 9 10 11 13 14 14 15 15 15 16 16 15 15 17 17 17 16 18 15 13 15 14 17
4 4 4 7 2 4 9 6 8 10 10 7 9 9 14 13 11 12 10 8 7 9 10 12 12 12 13 14 14 14 14 15 16 15 15 16 16 16 16 16 16 17 14 16
5 5 3 1 4 5 6 8 4 7 7 8 7 10 9 6 7 9 10 8 9 10 11 12 10 12 13 13 13 14 14 15 16 17 15 15 15 15 14 15 16 15 13 14
5 4 3 3 7 7 6 6 3 3 3 6 6 7 2 6 8 9 9 9 9 9 9 7 10 11 11 12 14 13 14 16 17 15 15 15 15 14 15 16 15 15 15 14
3 2 4 5 4 4 6 6 6 3 4 5 7 7 6 6 5 6 8 9 8 8 8 9 8 9 10 10 12 14 15 15 14 14 13 13 13 14 14 14 14 12 12 12
5 3 7 6 5 5 1 6 3 4 5 6 7 8 6 2 7 8 8 8 8 8 9 8 10 9 9 8 8 11 12 13 12 12 13 14 14 14 14 12 13 10 10 11
7 7 5 4 4 3 9 1 2 3 5 4 7 9 12 12 12 10 9 9 9 9 9 9 8 9 12 13 12 11 9 5 8 10 13 14 15 12 12 15 12 12 11 12
2 2 2 4 3 4 7 7 4 3 6 6 7 8 9 10 10 9 8 9 9 10 8 8 9 11 12 14 14 14 13 10 9 9 10 11 13 14 13 15 15 12 13 11
3 5 3 6 6 6 7 7 7 7 8 8 8 9 9 10 8 9 8 8 8 8 9 10 11 12 13 13 14 14 13 13 13 13 13 11 11 13 15 11 11 12 12 10
2 8 7 4 7 8 6 7 8 9 9 10 9 8 9 9 9 9 9 8 7 8 8 9 10 11 13 13 14 15 15 15 12 12 12 12 10 11 10 12 11 10 13 14
1 4 3 2 12 5 10 9 9 9 9 8 10 9 9 9 9 9 8 7 8 9 9 9 10 11 12 13 14 15 15 14 13 12 10 10 9 9 9 8 7 17 19 22
Wind_Direction
216 226 236 243 235 243 255 266 274 282 243 227 239 253 239 214 234 237 225 229 221 202 112 102 46 20 1 358 345 339 331 323 314 306 294 278 263 248 240 230 247 223 217 209
230 237 246 257 268 274 274 258 250 264 284 247 252 253 254 241 235 235 230 194 184 171 169 81 24 13 6 356 352 338 331 325 314 303 296 291 285 280 277 230 229 233 222 199
235 236 268 247 258 269 269 266 258 253 280 277 262 261 248 237 225 227 208 153 139 157 128 21 8 5 355 350 349 337 331 322 313 306 294 283 265 258 262 254 225 236 217 209
256 256 233 233 224 220 250 262 267 276 256 248 238 252 256 211 185 177 156 160 152 128 49 18 359 355 349 349 343 336 331 320 309 312 298 291 281 277 254 242 219 222 241 219
229 237 239 230 232 223 253 251 261 240 259 263 246 258 263 165 177 184 160 151 118 91 36 12 4 354 340 347 341 337 329 319 319 314 300 288 276 274 269 261 239 211 215 219
261 283 296 244 228 230 270 305 243 251 245 239 242 252 254 178 187 174 145 121 104 58 29 10 4 353 349 348 340 337 332 325 322 318 305 291 277 270 269 258 253 212 207 205
226 222 245 239 216 207 226 243 223 221 218 246 229 232 234 169 151 155 134 115 102 44 30 8 2 356 351 346 345 343 336 324 327 319 308 294 281 267 259 259 258 234 207 199
221 199 196 196 213 202 204 197 224 213 210 244 274 248 95 46 77 83 83 99 83 42 25 10 4 0 352 348 348 341 336 330 330 319 312 301 290 269 259 250 246 252 207 203
236 231 186 188 214 222 213 213 224 266 288 272 177 131 109 118 117 119 103 87 58 35 14 7 1 4 355 351 349 342 336 335 333 324 323 311 309 294 253 245 227 226 209 207
300 245 227 168 227 222 220 239 225 210 257 237 210 191 167 163 159 129 100 68 34 14 6 1 1 3 0 356 351 347 340 340 335 329 331 325 327 321 318 244 220 216 213 208
257 260 201 177 212 248 219 200 244 234 293 288 262 94 84 151 118 115 97 49 23 5 3 354 1 1 3 359 356 356 346 345 344 337 339 341 340 336 333 304 243 231 222 223
193 273 213 210 177 215 275 286 256 264 215 239 281 306 123 112 108 74 50 37 16 6 4 359 2 3 5 1 355 359 356 349 346 341 342 351 346 341 340 341 329 255 231 227
172 213 221 194 200 207 239 239 289 302 280 277 287 358 101 133 191 174 341 58 12 13 9 4 1 4 7 0 356 359 3 352 349 350 353 360 350 343 345 346 338 306 233 202
304 255 250 271 0 69 190 206 218 207 266 276 271 281 149 333 351 356 30 39 22 22 8 6 2 1 6 1 357 1 1 357 351 357 358 6 344 344 352 350 350 355 351 189
219 227 249 320 35 11 266 222 216 241 249 264 287 301 333 16 356 27 11 15 16 18 9 9 2 1 2 1 359 3 1 360 353 1 3 3 346 350 1 6 352 22 7 18
202 221 238 227 240 260 266 254 251 261 268 267 278 283 36 354 5 59 48 34 28 23 12 4 0 2 2 2 360 359 2 359 3 7 10 360 355 2 7 8 16 39 18 31
194 185 204 235 192 264 255 278 287 278 252 288 276 358 7 25 50 40 43 40 31 30 17 8 5 4 3 360 358 3 4 5 12 13 7 4 4 9 14 10 16 27 21 36
194 187 179 188 187 227 77 62 16 341 346 4 336 358 12 64 75 60 46 43 34 29 23 15 7 10 9 359 1 10 11 19 19 15 8 8 9 14 17 20 25 23 26 33
203 189 183 194 217 105 161 52 40 15 64 49 334 335 351 143 140 72 58 53 41 28 15 28 15 12 14 6 9 16 19 25 22 17 12 8 12 17 22 27 28 29 31 28
154 278 237 196 248 237 83 36 38 55 231 26 356 325 295 191 245 81 57 50 42 33 27 21 29 15 5 19 19 22 26 23 18 14 13 13 16 21 28 26 28 31 39 39
176 195 224 201 239 104 216 345 47 245 51 23 16 352 248 158 68 89 68 52 36 34 28 29 33 22 17 16 26 30 26 25 16 18 20 21 21 24 21 26 30 28 36 40
182 185 198 224 232 200 356 138 277 25 63 69 64 59 80 98 95 83 68 51 38 29 26 34 38 33 33 26 23 25 41 21 27 24 26 29 23 21 27 25 24 32 32 39
221 15 59 8 56 89 47 76 74 50 91 82 88 79 90 88 81 75 70 58 41 24 26 43 43 39 33 31 23 22 6 35 34 38 42 35 40 30 26 34 29 26 30 31
154 156 97 182 133 119 102 92 80 84 98 95 92 89 95 100 97 91 76 65 56 38 34 34 40 38 36 27 26 22 14 19 32 33 33 36 39 47 39 33 37 36 29 29
105 155 133 79 132 124 113 111 113 108 106 103 94 100 107 107 99 96 88 78 67 56 46 45 40 39 33 30 24 20 18 17 29 35 29 32 36 33 54 55 44 44 40 38
195 143 210 132 155 77 132 133 132 126 120 123 117 114 107 105 106 100 91 81 74 65 51 49 45 38 29 28 26 18 16 22 24 29 32 26 28 28 33 33 64 61 66 50